When you browse on this site, cookies collect data to enhance your experience and personalize the content and advertising you see.
Visit our Privacy Policy to learn more. By continuing to use the site, you agree to this use of cookies and data.
  • în România
  • Lista ţărilor
  • Pe 7 zile
  • Temperatura apei
  • Meteo pe hartă
  • Widget-uri
  • user-avatar
    Intrare

    Meteo pe oră la Olsztyn

    Astăzi, 28 Mai, Joi

    Timp Temperatura Precipitaţii Vânt Presiune Umiditate
    00:00 +8°C° 0 mm 0 m/s 758 mmHg 92%
    01:00 +9°C° 0 mm 0 m/s 758 mmHg 93%
    02:00 +9°C° 0 mm 0 m/s 758 mmHg 91%
    03:00 +9°C° 0 mm 0 m/s 757 mmHg 90%
    04:00 +11°C° 0 mm 1 m/s 757 mmHg 89%
    05:00 +11°C° 0 mm 1 m/s 757 mmHg 87%
    06:00 +12°C° 0 mm 1 m/s 757 mmHg 84%
    07:00 +13°C° 0 mm 1 m/s 757 mmHg 82%
    08:00 +14°C° 0 mm 2 m/s 757 mmHg 78%
    09:00 +15°C° 0 mm 2 m/s 757 mmHg 74%
    10:00 +16°C° 0 mm 2 m/s 758 mmHg 70%
    11:00 +16°C° 0.3 mm 3 m/s 757 mmHg 71%
    12:00 +15°C° 0.3 mm 4 m/s 757 mmHg 72%
    13:00 +15°C° 0.3 mm 5 m/s 757 mmHg 74%
    14:00 +15°C° 0.1 mm 5 m/s 757 mmHg 73%
    15:00 +15°C° 0.1 mm 5 m/s 757 mmHg 72%
    16:00 +15°C° 0.1 mm 6 m/s 757 mmHg 71%
    17:00 +14°C° 0 mm 5 m/s 757 mmHg 75%
    18:00 +13°C° 0 mm 5 m/s 757 mmHg 78%
    19:00 +12°C° 0 mm 5 m/s 757 mmHg 81%
    20:00 +10°C° 0 mm 5 m/s 757 mmHg 78%
    21:00 +10°C° 0 mm 5 m/s 757 mmHg 75%
    22:00 +9°C° 0 mm 5 m/s 757 mmHg 72%
    23:00 +8°C° 0 mm 5 m/s 757 mmHg 75%

    Mâine, 29 Mai, Vineri

    Timp Temperatura Precipitaţii Vânt Presiune Umiditate
    00:00 +7°C° 0 mm 4 m/s 757 mmHg 78%
    01:00 +6°C° 0 mm 4 m/s 757 mmHg 81%
    02:00 +6°C° 0 mm 4 m/s 757 mmHg 83%
    03:00 +5°C° 0 mm 4 m/s 757 mmHg 84%
    04:00 +4°C° 0 mm 4 m/s 757 mmHg 86%
    05:00 +6°C° 0 mm 4 m/s 757 mmHg 79%
    06:00 +7°C° 0 mm 5 m/s 757 mmHg 73%
    07:00 +9°C° 0 mm 6 m/s 757 mmHg 66%
    08:00 +10°C° 0 mm 6 m/s 757 mmHg 63%
    09:00 +11°C° 0 mm 6 m/s 757 mmHg 60%
    10:00 +14°C° 0 mm 7 m/s 757 mmHg 57%
    11:00 +14°C° 0 mm 7 m/s 757 mmHg 56%
    12:00 +15°C° 0 mm 7 m/s 757 mmHg 55%
    13:00 +15°C° 0 mm 7 m/s 756 mmHg 54%
    14:00 +15°C° 0 mm 7 m/s 756 mmHg 57%
    15:00 +14°C° 0 mm 7 m/s 756 mmHg 60%
    16:00 +14°C° 0 mm 6 m/s 756 mmHg 62%
    17:00 +13°C° 0 mm 6 m/s 755 mmHg 66%
    18:00 +11°C° 0 mm 6 m/s 755 mmHg 71%
    19:00 +9°C° 0 mm 5 m/s 755 mmHg 75%
    20:00 +9°C° 0 mm 5 m/s 755 mmHg 78%
    21:00 +8°C° 0 mm 5 m/s 755 mmHg 81%
    22:00 +7°C° 0 mm 4 m/s 755 mmHg 84%
    23:00 +7°C° 0 mm 4 m/s 755 mmHg 82%

    Poimâine, 30 Mai, Sâmbătă

    Timp Temperatura Precipitaţii Vânt Presiune Umiditate
    00:00 +7°C° 0 mm 4 m/s 754 mmHg 80%
    01:00 +7°C° 0 mm 4 m/s 754 mmHg 78%
    02:00 +7°C° 0 mm 4 m/s 754 mmHg 80%
    03:00 +7°C° 0 mm 5 m/s 754 mmHg 81%
    04:00 +7°C° 0 mm 5 m/s 754 mmHg 82%
    05:00 +7°C° 0 mm 5 m/s 754 mmHg 80%
    06:00 +8°C° 0 mm 5 m/s 753 mmHg 77%
    07:00 +9°C° 0 mm 6 m/s 753 mmHg 75%
    08:00 +10°C° 0 mm 6 m/s 753 mmHg 71%
    09:00 +11°C° 0 mm 6 m/s 753 mmHg 67%
    10:00 +14°C° 0 mm 7 m/s 753 mmHg 63%
    11:00 +14°C° 0 mm 7 m/s 753 mmHg 64%
    12:00 +15°C° 0 mm 7 m/s 752 mmHg 65%
    13:00 +15°C° 0 mm 6 m/s 752 mmHg 65%
    14:00 +14°C° 0.1 mm 6 m/s 752 mmHg 73%
    15:00 +14°C° 0.1 mm 6 m/s 752 mmHg 81%
    16:00 +13°C° 0.1 mm 5 m/s 752 mmHg 90%
    17:00 +13°C° 0.6 mm 5 m/s 751 mmHg 91%
    18:00 +13°C° 0.6 mm 6 m/s 751 mmHg 93%
    19:00 +11°C° 0.6 mm 6 m/s 751 mmHg 95%
    20:00 +12°C° 0.9 mm 5 m/s 751 mmHg 94%
    21:00 +12°C° 0.9 mm 5 m/s 751 mmHg 93%
    22:00 +12°C° 0.9 mm 4 m/s 751 mmHg 92%
    23:00 +12°C° 0.1 mm 4 m/s 751 mmHg 91%

    31 Mai, Duminică

    Timp Temperatura Precipitaţii Vânt Presiune Umiditate
    00:00 +12°C° 0.1 mm 4 m/s 751 mmHg 89%
    01:00 +11°C° 0.1 mm 4 m/s 751 mmHg 88%
    02:00 +10°C° 0 mm 5 m/s 751 mmHg 86%
    03:00 +10°C° 0 mm 5 m/s 751 mmHg 85%
    04:00 +10°C° 0 mm 6 m/s 751 mmHg 83%
    05:00 +11°C° 0 mm 6 m/s 751 mmHg 80%
    06:00 +12°C° 0 mm 7 m/s 751 mmHg 76%
    07:00 +14°C° 0 mm 7 m/s 751 mmHg 73%
    08:00 +15°C° 0 mm 7 m/s 751 mmHg 72%
    09:00 +16°C° 0 mm 7 m/s 752 mmHg 70%
    10:00 +17°C° 0 mm 7 m/s 752 mmHg 69%
    11:00 +18°C° 0 mm 7 m/s 752 mmHg 69%
    12:00 +18°C° 0 mm 7 m/s 752 mmHg 69%
    13:00 +20°C° 0 mm 7 m/s 752 mmHg 69%
    14:00 +20°C° 0 mm 7 m/s 752 mmHg 68%
    15:00 +20°C° 0 mm 6 m/s 753 mmHg 68%
    16:00 +20°C° 0 mm 6 m/s 753 mmHg 67%
    17:00 +19°C° 0 mm 5 m/s 753 mmHg 70%
    18:00 +17°C° 0 mm 5 m/s 753 mmHg 72%
    19:00 +18°C° 0 mm 4 m/s 753 mmHg 75%
    20:00 +17°C° 0 mm 4 m/s 754 mmHg 76%
    21:00 +15°C° 0 mm 4 m/s 754 mmHg 76%
    22:00 +14°C° 0 mm 4 m/s 755 mmHg 77%
    23:00 +13°C° 0 mm 4 m/s 755 mmHg 81%

    1 Iunie, Luni

    Timp Temperatura Precipitaţii Vânt Presiune Umiditate
    00:00 +12°C° 0 mm 3 m/s 755 mmHg 84%
    01:00 +11°C° 0 mm 3 m/s 755 mmHg 88%
    02:00 +10°C° 0 mm 3 m/s 755 mmHg 88%
    03:00 +10°C° 0 mm 3 m/s 755 mmHg 88%
    04:00 +10°C° 0 mm 3 m/s 755 mmHg 88%
    05:00 +11°C° 0 mm 3 m/s 756 mmHg 83%
    06:00 +13°C° 0 mm 3 m/s 756 mmHg 78%
    07:00 +14°C° 0 mm 3 m/s 756 mmHg 73%
    08:00 +17°C° 0 mm 4 m/s 756 mmHg 67%
    09:00 +19°C° 0 mm 4 m/s 756 mmHg 61%
    10:00 +20°C° 0 mm 5 m/s 756 mmHg 56%
    11:00 +20°C° 0 mm 5 m/s 756 mmHg 56%
    12:00 +21°C° 0 mm 5 m/s 756 mmHg 56%
    13:00 +21°C° 0 mm 5 m/s 756 mmHg 56%
    14:00 +21°C° 0 mm 5 m/s 756 mmHg 58%
    15:00 +20°C° 0 mm 5 m/s 756 mmHg 60%
    16:00 +20°C° 0 mm 5 m/s 756 mmHg 62%
    17:00 +19°C° 0 mm 4 m/s 756 mmHg 68%
    18:00 +18°C° 0 mm 4 m/s 756 mmHg 73%
    19:00 +17°C° 0 mm 3 m/s 756 mmHg 78%
    20:00 +16°C° 0 mm 3 m/s 756 mmHg 83%
    21:00 +14°C° 0 mm 3 m/s 756 mmHg 87%
    22:00 +13°C° 0 mm 2 m/s 756 mmHg 91%
    23:00 +13°C° 0 mm 2 m/s 756 mmHg 92%

    2 Iunie, Marţi

    Timp Temperatura Precipitaţii Vânt Presiune Umiditate
    00:00 +13°C° 0 mm 2 m/s 756 mmHg 93%
    01:00 +12°C° 0 mm 2 m/s 756 mmHg 94%
    02:00 +12°C° 0 mm 2 m/s 756 mmHg 94%
    03:00 +12°C° 0 mm 2 m/s 756 mmHg 94%
    04:00 +12°C° 0 mm 2 m/s 756 mmHg 95%
    05:00 +14°C° 0 mm 2 m/s 756 mmHg 88%
    06:00 +16°C° 0 mm 3 m/s 756 mmHg 81%
    07:00 +18°C° 0 mm 3 m/s 756 mmHg 74%
    08:00 +19°C° 0 mm 3 m/s 756 mmHg 69%
    09:00 +20°C° 0 mm 4 m/s 756 mmHg 64%
    10:00 +22°C° 0 mm 4 m/s 756 mmHg 59%
    11:00 +22°C° 0 mm 4 m/s 756 mmHg 58%
    12:00 +22°C° 0 mm 4 m/s 756 mmHg 57%
    13:00 +23°C° 0 mm 4 m/s 755 mmHg 56%
    14:00 +22°C° 0.1 mm 4 m/s 755 mmHg 59%
    15:00 +22°C° 0.1 mm 4 m/s 755 mmHg 62%
    16:00 +22°C° 0.1 mm 4 m/s 755 mmHg 64%
    17:00 +21°C° 0.1 mm 4 m/s 754 mmHg 71%
    18:00 +20°C° 0.1 mm 3 m/s 754 mmHg 77%
    19:00 +18°C° 0.1 mm 2 m/s 754 mmHg 84%
    20:00 +17°C° 0 mm 2 m/s 754 mmHg 87%
    21:00 +16°C° 0 mm 2 m/s 754 mmHg 91%
    22:00 +15°C° 0 mm 2 m/s 754 mmHg 94%
    23:00 +14°C° 0 mm 1 m/s 754 mmHg 94%
    Arată mai mult